Theta_e
306 306 306 306 305 305 305 304 304 303 303 304 304 305 306 306 307 307 306 312 302 296 299 300 299 296 296 295 290 296 295 297 295 289 288 287 287 289 287 288 289 288 288 291 293 291 288 303 305 301 304 309 310 310
306 306 306 306 306 305 305 305 305 305 304 303 304 305 305 306 306 307 304 310 309 298 299 305 305 306 304 301 294 293 295 294 294 288 291 290 288 290 289 286 294 288 291 288 291 288 297 302 302 306 308 309 309 310
306 306 305 305 306 306 305 305 305 304 305 304 304 305 305 305 306 306 307 306 303 298 301 303 300 307 307 305 304 290 294 296 297 297 291 289 287 292 287 289 290 293 296 291 293 294 297 300 303 304 307 307 311 311
306 305 305 305 305 306 305 305 305 305 305 305 305 305 305 305 305 305 305 308 303 300 293 299 309 304 309 308 303 300 296 298 298 297 293 293 291 297 293 292 291 293 294 292 291 294 300 301 303 304 306 309 310 312
305 305 305 305 306 306 305 305 305 305 305 305 305 305 306 304 305 305 306 310 309 301 295 298 306 308 307 305 306 301 298 295 295 295 296 296 297 297 297 296 293 296 292 291 290 296 297 300 304 306 306 307 309 310
305 305 305 305 305 305 305 305 305 305 305 306 305 304 304 305 304 305 301 310 310 308 295 293 306 304 305 307 305 305 303 301 299 299 298 301 301 297 294 291 297 298 300 300 296 301 303 305 305 307 306 309 310 310
304 304 304 305 305 305 305 305 305 305 305 305 305 305 304 307 309 306 303 307 309 308 297 295 297 304 306 306 306 306 306 302 301 299 299 299 298 298 296 290 296 298 300 301 303 302 299 302 302 306 308 309 310 311
303 304 304 304 304 305 305 305 305 305 304 305 304 304 306 307 307 306 309 307 309 304 300 293 296 299 307 299 299 303 301 304 304 300 301 298 299 299 292 294 298 298 299 301 301 303 304 306 307 306 308 309 309 309
302 303 304 304 304 304 304 305 305 305 305 304 304 305 308 308 304 305 307 305 309 303 295 296 295 294 303 300 302 301 302 296 305 300 300 298 296 289 292 294 296 299 297 299 303 303 304 305 305 305 305 306 308 308
301 301 302 303 304 304 304 305 305 305 304 304 305 307 302 304 305 306 303 298 299 300 300 297 301 298 302 300 296 298 301 298 294 299 303 298 293 299 299 300 300 303 302 301 299 301 303 303 302 305 305 307 308 308
299 300 300 302 303 304 304 304 304 304 303 307 303 302 304 305 305 302 296 295 297 294 300 301 301 298 306 296 295 298 295 299 292 296 297 294 292 296 301 301 304 305 306 303 302 303 304 305 304 304 305 307 309 309
298 299 301 301 302 303 304 304 303 304 303 300 300 302 303 299 298 294 295 298 297 295 301 298 300 302 303 305 296 297 291 295 289 301 297 289 296 299 300 300 302 303 303 303 305 303 305 306 307 306 306 306 307 309
297 298 300 301 302 303 304 303 301 302 303 303 296 292 294 298 289 290 288 293 295 299 300 301 298 302 303 303 296 294 287 289 300 295 293 296 299 300 302 301 301 303 303 303 303 304 305 304 306 307 304 306 307 308
297 297 298 299 301 302 301 302 302 302 302 298 294 289 293 292 294 296 296 297 301 301 300 301 299 299 301 296 296 288 294 297 288 288 289 297 301 301 302 302 302 303 303 302 303 305 305 307 305 304 304 305 304 305
297 297 298 299 300 300 301 302 302 303 302 297 296 287 293 298 300 301 301 301 303 303 302 300 299 300 298 293 295 291 289 286 291 292 301 304 304 304 303 304 303 302 304 304 305 305 305 305 306 306 306 305 305 305
297 298 300 301 301 301 302 303 304 304 302 298 297 295 300 298 298 299 300 299 302 303 304 301 295 294 292 295 290 288 288 286 291 301 302 305 304 305 306 306 305 305 305 304 305 305 305 305 305 306 306 307 305 305
296 297 299 299 301 301 302 300 303 296 295 294 296 301 300 300 300 301 301 301 304 301 296 296 291 290 300 292 290 295 290 298 301 301 303 305 304 305 308 307 306 306 305 305 305 305 305 306 306 306 304 306 306 304
294 297 298 299 299 299 301 299 298 296 291 297 297 300 303 304 302 302 303 304 301 300 299 295 298 292 291 289 292 299 302 302 303 303 303 306 306 306 307 307 305 305 305 305 305 305 305 304 305 304 306 305 305 306
295 296 296 298 300 296 294 297 299 292 296 299 301 303 303 304 305 305 304 305 305 304 301 298 294 293 294 297 298 298 300 301 301 302 304 306 307 306 306 306 306 306 305 306 305 305 305 306 305 305 306 305 304 304
295 296 297 299 298 293 290 294 301 296 294 299 301 301 302 302 304 304 304 304 303 301 297 295 296 298 298 300 303 303 302 303 302 301 301 304 306 306 306 306 304 306 305 305 304 301 304 305 304 305 304 304 302 302
295 299 299 298 297 295 292 294 294 297 298 297 300 300 300 303 302 302 301 304 299 298 297 299 300 302 304 304 305 304 304 304 302 302 302 301 305 304 304 305 305 304 303 302 302 301 301 305 304 305 304 302 305 302
295 296 295 297 294 292 290 295 295 299 296 296 296 297 296 296 297 299 302 299 298 301 302 301 302 303 303 303 304 305 304 305 305 303 299 301 302 302 304 304 304 301 302 303 302 302 302 304 304 305 304 304 301 302
296 293 292 293 288 288 287 296 290 293 290 292 296 293 295 297 299 303 298 300 301 304 303 303 304 305 304 305 305 305 305 304 302 303 304 304 304 304 304 304 305 302 301 303 306 302 302 296 300 302 304 304 302 301
295 291 288 286 286 284 290 289 293 292 293 291 290 290 293 296 299 296 294 297 301 303 303 303 302 301 302 303 302 302 303 305 303 304 304 305 302 304 304 305 303 303 305 305 305 302 302 303 299 302 301 301 301 298
286 285 286 283 287 284 284 286 288 288 286 289 288 288 291 296 292 291 291 296 298 300 303 302 301 300 300 301 302 303 305 303 301 301 305 306 303 304 304 303 303 305 307 305 303 301 302 303 302 302 300 298 297 298
278 286 283 285 285 285 285 283 285 286 287 287 288 293 296 292 289 288 293 296 298 299 302 302 301 300 299 301 300 301 302 304 303 301 304 305 304 303 301 300 300 302 305 305 304 302 302 302 301 299 299 296 289 295
277 282 288 292 290 289 288 289 290 289 286 286 290 290 290 285 287 293 299 301 299 300 306 305 303 300 300 302 303 304 304 305 304 303 306 306 305 306 303 300 299 303 305 304 304 303 301 301 300 299 299 298 297 295
283 284 281 285 286 288 285 286 285 284 287 292 291 287 286 288 290 298 298 303 303 304 303 301 301 300 302 303 305 305 305 306 308 307 305 304 306 305 304 304 306 291 303 304 304 304 303 301 300 298 297 296 296 296
283 287 286 283 284 285 285 285 286 289 291 289 286 285 288 292 295 297 299 301 302 299 299 298 300 302 302 304 305 305 305 305 302 301 300 300 300 300 304 305 303 303 303 301 283 291 297 298 298 298 296 297 296 295
284 287 284 284 282 282 286 289 288 291 292 291 292 291 292 294 297 301 300 299 297 298 298 298 298 299 299 299 300 303 306 304 302 300 299 298 299 301 303 303 303 303 303 301 300 296 285 293 290 298 297 295 289 290
286 286 284 285 284 287 288 291 292 292 292 291 292 290 291 293 295 290 289 291 298 299 298 297 300 301 300 299 299 298 298 302 302 302 301 304 304 304 302 303 303 303 302 302 301 299 297 297 296 293 291 288 287 287
286 285 284 282 285 289 290 288 289 289 290 289 289 291 291 291 289 286 287 288 288 290 290 294 294 292 297 299 299 298 290 296 297 298 300 302 303 303 303 302 301 300 299 299 298 297 296 294 292 290 288 287 287 287
286 286 286 285 285 285 288 288 287 287 288 288 288 290 291 289 282 286 290 289 287 286 286 290 293 293 294 294 294 293 291 292 287 284 285 285 286 291 296 297 297 296 296 295 294 293 292 290 289 287 287 286 286 285
Wind_Speed
17 18 18 18 18 19 19 20 21 20 20 21 19 17 17 16 14 9 7 8 6 5 17 14 8 12 12 8 5 12 11 4 5 6 4 4 4 5 4 3 5 3 2 5 5 4 5 19 5 5 7 6 7 7
18 18 18 18 17 18 20 20 20 21 19 20 21 19 17 17 15 10 10 4 4 4 13 20 20 17 13 12 4 3 8 14 5 4 3 4 3 4 6 3 3 1 4 4 5 2 11 7 13 13 13 8 9 8
19 18 19 20 18 18 20 19 21 22 22 21 21 21 18 16 14 10 10 3 3 4 12 9 7 5 1 5 8 2 3 5 4 3 3 3 4 2 4 5 3 5 7 4 3 6 9 11 13 13 10 12 10 9
18 19 19 19 21 19 18 18 20 22 23 22 21 21 19 17 13 11 8 6 3 5 5 3 6 1 5 8 11 11 5 5 5 5 4 4 3 2 5 3 3 5 6 8 2 7 9 1 11 11 9 12 14 11
18 19 19 19 19 18 19 19 20 23 24 24 23 22 21 18 12 9 8 9 7 5 6 10 14 5 5 8 8 11 10 7 4 4 6 3 4 3 3 3 5 4 4 3 3 4 5 11 14 9 10 12 12 13
18 19 19 19 19 18 19 19 20 21 25 26 26 24 23 19 7 4 6 8 8 4 3 5 7 4 7 6 6 9 7 7 5 6 5 3 2 6 3 3 8 8 9 7 4 8 11 12 7 8 10 11 11 12
18 18 19 20 19 19 19 20 20 21 26 25 25 23 22 11 8 4 7 4 7 5 3 6 4 4 2 4 3 4 5 5 4 4 4 5 3 4 5 5 14 13 14 11 9 8 10 6 10 10 10 9 9 11
16 17 18 19 19 19 18 19 21 22 26 27 25 23 10 2 9 6 4 3 4 4 3 4 5 2 3 3 1 3 3 3 3 2 4 5 3 5 4 11 13 9 12 11 11 12 11 12 11 7 8 11 10 10
17 16 18 19 18 18 18 18 20 21 24 28 23 8 4 5 2 4 4 5 5 4 3 5 3 2 3 1 5 3 3 3 1 2 1 3 3 3 5 12 9 7 6 10 11 10 12 14 13 9 7 10 11 10
17 17 18 19 18 17 17 17 19 20 27 28 11 8 4 4 2 5 3 3 4 4 5 7 3 3 4 2 3 4 5 4 1 2 1 1 3 4 2 4 4 8 9 11 13 14 14 12 11 16 13 9 10 11
18 18 19 19 18 18 17 16 18 20 18 5 5 3 7 6 4 4 4 5 5 5 7 7 3 6 4 3 1 3 4 4 2 2 2 2 2 4 5 4 6 8 7 4 6 11 10 12 11 11 13 13 14 15
18 19 19 18 19 18 16 14 14 8 7 8 9 8 4 3 4 6 6 5 5 5 7 5 3 4 3 1 1 2 2 4 3 2 1 2 3 5 6 9 9 7 12 10 5 6 11 11 10 12 12 12 11 12
19 20 21 19 19 18 17 10 9 12 15 2 3 4 3 5 3 7 6 5 3 6 5 4 3 2 3 2 1 0 2 4 7 3 1 3 8 4 5 5 6 9 11 12 11 13 12 13 15 11 11 12 16 13
19 20 21 21 21 13 5 9 12 10 6 5 3 5 7 6 7 7 7 4 4 1 5 2 3 4 4 2 2 3 4 0 3 3 3 4 5 6 4 4 8 10 10 10 14 14 14 14 13 13 12 13 14 15
20 22 22 18 3 7 14 13 15 5 5 5 5 7 9 9 7 4 6 2 2 4 3 4 5 3 4 3 3 2 3 4 5 3 0 1 4 4 4 4 4 6 9 11 11 12 13 12 13 16 15 14 11 14
20 23 2 9 9 15 19 16 12 5 4 5 8 7 8 6 8 8 7 6 5 5 2 3 5 3 5 4 4 5 4 5 3 2 5 2 3 4 5 3 4 6 7 8 10 10 9 10 12 13 15 14 13 14
19 4 19 18 16 20 18 6 4 5 6 7 7 10 12 10 8 8 5 5 5 6 7 3 4 4 0 4 3 4 5 3 5 4 1 4 4 4 2 2 2 4 4 6 7 8 10 10 10 11 13 13 13 14
11 9 16 19 17 11 4 5 5 6 9 9 9 9 10 7 9 9 6 4 6 7 8 7 4 7 5 4 5 6 7 7 5 3 4 2 3 4 3 1 3 3 5 5 5 5 8 10 9 8 12 12 10 13
15 16 23 22 13 5 5 5 5 6 9 9 9 10 10 8 7 9 8 6 7 7 6 4 7 7 10 11 10 8 7 5 5 5 4 5 4 6 2 2 3 3 4 4 5 4 4 8 8 7 9 9 10 10
21 19 21 10 4 3 5 6 4 6 5 5 8 9 9 8 8 8 8 8 9 8 10 10 12 10 10 9 5 6 6 4 4 5 6 1 6 7 5 5 3 3 5 3 4 1 5 6 6 6 6 7 8 10
15 5 5 6 4 5 5 5 6 7 7 7 7 8 8 8 9 9 9 9 9 9 11 11 11 11 12 10 10 8 9 7 6 4 6 7 8 6 5 4 4 5 4 1 4 1 3 7 5 4 6 6 8 7
7 6 7 4 5 5 6 6 7 8 7 10 12 11 10 9 11 11 9 9 10 10 11 11 11 10 11 11 10 11 12 9 7 3 5 7 6 5 4 7 5 5 4 2 3 4 4 7 6 4 3 6 6 6
5 5 6 6 6 5 8 6 6 7 8 5 8 8 8 7 8 4 5 6 8 10 10 7 5 7 9 10 11 10 11 11 8 8 6 6 5 4 4 4 6 3 3 3 2 5 4 3 6 6 6 6 6 7
4 4 5 6 8 6 5 5 5 5 6 10 11 15 14 10 4 4 8 10 10 7 4 1 5 8 7 10 8 9 8 8 8 8 7 8 5 4 5 3 3 3 2 4 3 1 3 4 6 5 6 6 6 6
6 6 5 8 5 6 7 12 13 8 11 13 15 8 6 4 3 6 9 8 6 5 2 3 5 6 6 5 6 7 7 8 8 8 6 8 6 4 6 6 4 1 2 1 2 1 2 3 5 5 6 6 7 7
8 8 10 7 7 9 8 12 15 17 16 18 10 6 8 8 7 6 6 6 4 3 3 2 3 4 5 5 5 5 5 7 7 7 9 8 7 7 5 8 7 8 5 2 1 2 1 4 5 3 4 5 4 6
8 9 8 9 11 9 9 9 11 10 8 5 5 9 6 6 6 4 4 4 5 4 0 2 3 5 6 6 5 4 6 4 7 9 10 7 6 8 3 4 6 5 5 4 2 1 3 2 3 3 3 4 5 5
11 8 16 13 14 11 16 15 15 6 6 6 5 6 4 5 3 5 2 1 4 3 2 5 6 7 5 6 6 6 5 3 5 6 4 5 5 4 3 5 8 11 6 4 3 3 2 3 4 3 3 4 4 5
10 12 13 17 17 13 14 14 12 14 14 11 6 4 6 4 7 4 6 4 4 8 5 6 6 6 6 5 5 3 5 7 8 12 14 8 6 5 6 8 8 7 7 7 9 8 7 5 5 4 4 5 4 4
17 12 16 18 19 18 15 13 13 12 13 11 9 10 11 9 7 7 8 7 6 7 6 7 6 8 7 4 6 4 3 5 8 7 8 7 8 5 9 9 9 8 8 8 8 8 4 6 6 4 0 6 5 2
9 11 15 14 18 14 12 12 10 10 12 13 12 11 12 8 7 9 9 8 8 8 8 8 6 7 6 6 3 3 1 4 5 7 7 2 9 6 1 7 6 6 6 5 5 6 7 4 5 5 5 5 4 3
5 11 13 18 14 11 11 12 10 11 11 11 12 12 11 2 2 4 7 7 8 9 9 8 6 6 9 8 8 8 7 10 12 12 16 8 7 7 6 4 4 3 2 2 4 5 6 7 4 4 5 5 5 6
9 10 11 8 8 8 9 9 6 9 10 10 10 11 3 3 5 4 4 7 5 5 6 8 7 7 9 10 8 8 8 8 9 10 11 12 12 10 9 8 8 9 10 9 7 6 5 6 5 6 6 5 6 6
Wind_Direction
304 302 306 310 313 313 313 316 319 318 321 323 326 326 322 317 315 302 284 186 229 258 294 286 298 290 286 285 287 328 309 14 306 360 331 341 325 333 317 22 351 299 228 215 231 237 102 340 53 6 56 73 41 28
301 302 305 306 308 308 309 311 313 315 317 319 321 324 323 317 309 309 266 163 203 230 281 299 287 276 275 278 276 276 293 316 349 354 321 304 295 299 318 83 61 233 357 319 38 43 294 25 53 38 9 38 29 14
298 299 302 304 305 306 310 310 310 313 315 316 318 319 318 316 306 280 285 129 201 260 279 242 252 221 267 268 151 223 279 350 293 96 298 284 287 293 323 46 330 12 8 328 306 11 321 53 36 21 13 352 359 8
294 300 298 301 306 304 307 308 308 310 312 314 315 314 314 315 304 277 245 240 214 298 276 326 208 68 118 158 177 201 242 282 273 277 249 253 259 338 353 340 57 1 346 338 19 6 308 256 8 354 4 351 345 360
294 295 296 297 301 302 305 306 309 310 312 313 315 315 315 313 296 269 254 262 231 278 309 311 308 247 151 183 209 207 223 248 266 269 236 292 291 348 181 307 55 59 357 355 358 5 301 305 316 351 346 344 334 342
298 299 299 300 301 302 302 304 307 308 312 314 316 316 315 308 262 194 232 202 213 185 274 296 348 204 138 219 230 204 207 228 250 290 313 318 297 324 296 96 40 21 358 359 303 301 297 296 286 330 332 327 337 317
301 303 303 302 300 302 300 304 308 312 314 313 313 313 312 294 207 272 14 17 139 151 235 280 286 228 339 204 289 244 204 237 246 269 293 317 303 294 322 38 357 357 350 337 318 335 316 316 323 316 311 318 321 321
304 307 306 307 305 303 302 305 311 312 315 312 313 313 306 150 256 227 115 181 189 248 241 273 281 24 344 332 263 283 276 262 266 287 320 342 5 359 35 347 338 345 335 325 343 327 303 294 293 327 329 322 328 327
308 313 313 309 306 304 303 305 311 313 312 308 314 291 225 234 264 53 97 160 231 283 258 233 260 330 241 46 292 227 221 260 111 34 299 318 63 37 290 311 323 330 332 320 324 315 330 335 334 336 335 322 321 331
311 316 317 318 317 314 309 308 315 316 308 302 288 209 160 38 38 161 174 205 204 220 231 260 277 273 287 45 309 357 281 289 236 96 154 344 65 341 123 358 351 344 22 1 356 355 346 342 341 330 328 331 320 320
316 310 311 314 317 313 315 317 321 319 290 311 332 320 6 116 239 217 232 221 176 226 207 234 318 313 114 319 267 288 291 304 279 117 288 33 75 22 10 330 39 333 3 46 20 360 351 335 346 342 334 341 338 333
313 315 313 313 311 309 313 320 325 302 346 319 303 299 307 263 231 231 223 203 222 242 168 254 60 342 70 316 292 285 274 306 289 9 288 197 97 75 26 16 19 12 20 21 19 7 0 359 353 2 360 352 336 321
317 312 313 317 316 316 312 314 324 310 294 187 205 235 224 219 245 224 211 222 236 175 210 207 230 66 129 252 186 355 266 248 328 272 241 108 118 116 55 18 9 30 27 3 17 42 30 360 355 15 5 351 348 345
323 314 310 310 308 309 0 326 324 318 276 251 241 246 223 201 229 220 248 268 58 305 250 274 282 154 193 211 195 224 232 196 263 257 203 94 51 77 99 30 2 8 19 10 12 30 6 16 19 19 11 14 3 351
323 314 303 301 331 298 311 314 303 272 271 261 211 244 226 237 277 252 256 266 215 258 271 237 234 212 184 221 210 250 235 242 221 231 189 12 12 359 360 359 36 4 8 10 15 33 11 2 13 20 22 14 5 3
324 304 86 5 331 322 316 311 283 222 238 249 237 259 255 264 254 226 222 246 249 199 222 258 263 235 214 190 176 218 240 229 240 222 275 32 50 335 333 304 20 28 7 7 4 28 12 360 4 15 19 26 19 11
310 248 355 328 328 318 301 277 226 217 242 232 239 240 263 280 272 295 293 229 221 221 230 201 233 240 60 225 201 179 216 240 225 237 34 45 306 313 350 281 25 34 359 17 17 9 25 3 5 5 12 7 26 27
287 303 317 321 329 302 266 207 258 230 239 238 247 259 252 237 265 269 257 228 236 227 236 239 249 234 232 185 240 206 209 238 252 241 282 36 268 249 240 251 335 344 19 9 357 7 48 15 12 352 344 10 10 17
317 311 304 300 303 294 278 230 232 256 237 258 260 256 271 274 256 261 268 255 207 246 258 199 240 246 244 247 252 266 198 243 242 211 198 193 246 257 279 216 278 289 347 337 332 13 88 44 30 2 343 2 5 18
298 296 286 284 240 242 256 250 235 256 261 276 291 266 263 257 245 243 233 233 229 211 229 234 238 250 268 283 266 242 256 250 220 223 245 313 196 193 219 272 226 5 269 330 320 255 12 61 33 16 350 340 349 14
299 22 296 229 206 233 274 280 251 251 270 272 280 282 276 264 241 229 240 236 226 219 240 237 245 261 271 276 280 275 238 244 249 254 239 147 267 154 202 208 217 251 280 217 311 53 251 67 36 31 338 21 7 16
261 329 293 262 246 216 247 239 253 320 282 266 275 279 270 269 269 266 258 232 223 227 235 249 255 245 252 267 249 240 251 240 237 172 156 190 254 173 206 205 205 247 252 52 337 333 34 68 22 329 56 30 5 44
236 228 225 248 236 243 260 228 245 232 247 261 230 264 267 246 263 249 249 254 238 231 246 242 263 287 285 285 279 232 224 225 240 229 210 215 198 189 140 221 236 278 294 124 321 9 25 107 102 342 13 40 42 9
221 240 226 231 208 254 245 231 227 258 263 252 270 276 268 276 277 235 249 234 248 253 218 249 276 260 244 231 260 249 225 226 235 236 208 229 189 192 162 233 243 206 312 351 30 18 337 20 127 49 20 21 36 39
264 215 223 225 216 233 246 241 232 230 249 253 252 235 270 291 250 242 263 263 249 211 111 257 268 260 263 246 215 242 235 220 216 232 94 304 132 192 171 198 185 122 11 249 210 245 32 25 44 44 65 28 16 35
248 224 206 216 215 217 231 252 246 246 247 244 236 244 242 227 239 242 243 230 150 132 95 317 334 315 291 286 269 258 240 223 249 230 198 217 160 191 214 211 194 156 153 261 338 33 29 62 72 39 68 99 66 21
243 251 222 243 260 268 268 272 283 285 276 258 220 218 225 231 230 241 107 170 118 103 215 346 356 331 329 308 299 266 273 205 223 246 161 207 164 219 189 196 189 96 107 135 141 55 19 61 60 68 44 85 62 42
224 260 257 259 252 248 261 266 266 271 267 255 262 239 236 229 12 28 321 77 97 199 324 324 320 310 304 319 319 289 250 113 126 131 167 165 140 141 160 103 81 62 97 75 49 118 83 65 87 86 75 60 65 57
233 248 258 261 264 263 254 254 261 260 261 266 283 317 322 319 285 330 288 25 340 297 317 338 330 325 300 260 269 254 243 178 199 188 189 177 180 176 169 136 160 160 149 123 60 44 47 44 35 63 71 70 74 64
251 244 245 250 255 259 261 261 257 261 271 274 277 283 280 261 30 27 359 352 354 343 334 310 312 299 280 270 287 265 124 58 8 325 241 200 195 231 181 169 180 161 159 164 151 129 116 177 150 165 92 82 65 37
251 267 263 254 251 253 254 258 266 275 268 269 268 267 272 278 98 42 21 348 316 306 356 343 340 337 355 17 18 342 16 90 45 25 349 173 165 159 66 246 170 167 170 198 183 180 161 156 83 66 75 90 83 73
234 237 245 252 254 251 250 266 256 245 253 251 253 258 258 292 36 42 8 357 15 9 355 4 55 9 2 45 59 72 44 26 13 12 5 11 51 82 92 73 73 67 138 149 76 77 50 70 120 109 102 106 109 104
254 252 254 262 258 264 243 231 258 258 247 240 253 259 261 33 80 49 59 25 15 355 343 336 19 42 41 51 72 71 66 66 55 31 30 34 36 36 61 53 56 62 68 77 79 97 119 131 135 131 123 118 105 98